owner,sensor,date,latitude,longitude,vertical_datum,wind_speed,wind_to_direction,wind_speed_of_gust,qcFlag 
COMPS,ioos:station:USF.COMPS:NFB:1,2014-01-01T00:00:00Z,25.0840,-81.0960,6.0,9.43,61.02,10.87,'1111122,1111122,1111122' 
COMPS,ioos:station:USF.COMPS:NFB:1,2014-01-01T00:06:00Z,25.0840,-81.0960,6.0,9.38,60.17,10.97,'1111122,1111122,1111122' 
COMPS,ioos:station:USF.COMPS:NFB:1,2014-01-01T00:12:00Z,25.0840,-81.0960,6.0,8.92,62.19,10.48,'1111122,1111122,1111122' 
COMPS,ioos:station:USF.COMPS:NFB:1,2014-01-01T00:18:00Z,25.0840,-81.0960,6.0,8.79,65.02,10.09,'1111122,1111122,1111122' 
COMPS,ioos:station:USF.COMPS:NFB:1,2014-01-01T00:24:00Z,25.0840,-81.0960,6.0,9.81,63.99,11.27,'1111122,1111122,1111122' 
COMPS,ioos:station:USF.COMPS:NFB:1,2014-01-01T00:30:00Z,25.0840,-81.0960,6.0,9.51,65.05,10.97,'1111122,1111122,1111122' 
COMPS,ioos:station:USF.COMPS:NFB:1,2014-01-01T00:36:00Z,25.0840,-81.0960,6.0,9.45,61.97,10.87,'1111122,1111122,1111122' 
COMPS,ioos:station:USF.COMPS:NFB:1,2014-01-01T00:42:00Z,25.0840,-81.0960,6.0,8.83,63.23,10.29,'1111122,1111122,1111122' 
COMPS,ioos:station:USF.COMPS:NFB:1,2014-01-01T00:48:00Z,25.0840,-81.0960,6.0,9.12,58.84,10.78,'1111122,1111122,1111122' 
COMPS,ioos:station:USF.COMPS:NFB:1,2014-01-01T00:54:00Z,25.0840,-81.0960,6.0,9.38,58.04,10.78,'1111122,1111122,1111122' 
COMPS,ioos:station:USF.COMPS:NFB:1,2014-01-01T01:00:00Z,25.0840,-81.0960,6.0,9.11,52.3,10.38,'1111122,1111122,1111122' 
COMPS,ioos:station:USF.COMPS:NFB:1,2014-01-01T01:06:00Z,25.0840,-81.0960,6.0,8.83,55.38,10.78,'1111122,1111122,1111122' 
COMPS,ioos:station:USF.COMPS:NFB:1,2014-01-01T01:12:00Z,25.0840,-81.0960,6.0,8.77,58.01,10.09,'1111122,1111122,1111122' 
COMPS,ioos:station:USF.COMPS:NFB:1,2014-01-01T01:18:00Z,25.0840,-81.0960,6.0,8.52,59.58,9.99,'1111122,1111122,1111122' 
COMPS,ioos:station:USF.COMPS:NFB:1,2014-01-01T01:24:00Z,25.0840,-81.0960,6.0,9.19,62.35,11.75,'1111122,1111122,1111122' 
COMPS,ioos:station:USF.COMPS:NFB:1,2014-01-01T01:30:00Z,25.0840,-81.0960,6.0,8.63,57.96,9.89,'1111122,1111122,1111122' 
COMPS,ioos:station:USF.COMPS:NFB:1,2014-01-01T01:36:00Z,25.0840,-81.0960,6.0,9.04,59.04,10.38,'1111122,1111122,1111122' 
COMPS,ioos:station:USF.COMPS:NFB:1,2014-01-01T01:42:00Z,25.0840,-81.0960,6.0,8.75,64.47,10.48,'1111122,1111122,1111122' 
COMPS,ioos:station:USF.COMPS:NFB:1,2014-01-01T01:48:00Z,25.0840,-81.0960,6.0,8.82,64.02,10.09,'1111122,1111122,1111122' 
COMPS,ioos:station:USF.COMPS:NFB:1,2014-01-01T01:54:00Z,25.0840,-81.0960,6.0,8.3,60.48,9.6,'1111122,1111122,1111122' 
COMPS,ioos:station:USF.COMPS:NFB:1,2014-01-01T02:00:00Z,25.0840,-81.0960,6.0,8.9,59.2,10.58,'1111122,1111122,1111122' 
COMPS,ioos:station:USF.COMPS:NFB:1,2014-01-01T02:06:00Z,25.0840,-81.0960,6.0,8.49,53.47,9.99,'1111122,1111122,1111122' 
COMPS,ioos:station:USF.COMPS:NFB:1,2014-01-01T02:12:00Z,25.0840,-81.0960,6.0,8.17,54.88,9.5,'1111122,1111122,1111122' 
COMPS,ioos:station:USF.COMPS:NFB:1,2014-01-01T02:18:00Z,25.0840,-81.0960,6.0,7.93,51.28,8.91,'1111122,1111122,1111122' 
COMPS,ioos:station:USF.COMPS:NFB:1,2014-01-01T02:24:00Z,25.0840,-81.0960,6.0,7.81,52.7,8.72,'1111122,1111122,1111122' 
COMPS,ioos:station:USF.COMPS:NFB:1,2014-01-01T02:30:00Z,25.0840,-81.0960,6.0,7.75,52.19,9.01,'1111122,1111122,1111122' 
COMPS,ioos:station:USF.COMPS:NFB:1,2014-01-01T02:36:00Z,25.0840,-81.0960,6.0,7.69,49.97,9.11,'1111122,1111122,1111122' 
COMPS,ioos:station:USF.COMPS:NFB:1,2014-01-01T02:42:00Z,25.0840,-81.0960,6.0,7.82,50.76,8.91,'1111122,1111122,1111122' 
COMPS,ioos:station:USF.COMPS:NFB:1,2014-01-01T02:48:00Z,25.0840,-81.0960,6.0,8.14,50.73,9.4,'1111122,1111122,1111122' 
COMPS,ioos:station:USF.COMPS:NFB:1,2014-01-01T02:54:00Z,25.0840,-81.0960,6.0,8.2,49.47,9.21,'1111122,1111122,1111122' 
COMPS,ioos:station:USF.COMPS:NFB:1,2014-01-01T03:00:00Z,25.0840,-81.0960,6.0,7.78,50.78,9.01,'1111122,1111122,1111122' 
COMPS,ioos:station:USF.COMPS:NFB:1,2014-01-01T03:06:00Z,25.0840,-81.0960,6.0,7.79,51.89,9.11,'1111122,1111122,1111122' 
COMPS,ioos:station:USF.COMPS:NFB:1,2014-01-01T03:12:00Z,25.0840,-81.0960,6.0,8.23,51.5,9.3,'1111122,1111122,1111122' 
COMPS,ioos:station:USF.COMPS:NFB:1,2014-01-01T03:18:00Z,25.0840,-81.0960,6.0,8.22,52.13,10.29,'1111122,1111122,1111122' 
COMPS,ioos:station:USF.COMPS:NFB:1,2014-01-01T03:24:00Z,25.0840,-81.0960,6.0,8.45,50.43,10.58,'1111122,1111122,1111122' 
COMPS,ioos:station:USF.COMPS:NFB:1,2014-01-01T03:30:00Z,25.0840,-81.0960,6.0,9.01,53.62,10.48,'1111122,1111122,1111122' 
COMPS,ioos:station:USF.COMPS:NFB:1,2014-01-01T03:36:00Z,25.0840,-81.0960,6.0,8.25,52.0,9.7,'1111122,1111122,1111122' 
COMPS,ioos:station:USF.COMPS:NFB:1,2014-01-01T03:42:00Z,25.0840,-81.0960,6.0,7.89,52.59,9.11,'1111122,1111122,1111122' 
COMPS,ioos:station:USF.COMPS:NFB:1,2014-01-01T03:48:00Z,25.0840,-81.0960,6.0,7.74,54.88,9.4,'1111122,1111122,1111122' 
COMPS,ioos:station:USF.COMPS:NFB:1,2014-01-01T03:54:00Z,25.0840,-81.0960,6.0,8.5,59.8,10.38,'1111122,1111122,1111122' 
COMPS,ioos:station:USF.COMPS:NFB:1,2014-01-01T04:00:00Z,25.0840,-81.0960,6.0,8.13,62.63,9.3,'1111122,1111122,1111122' 
COMPS,ioos:station:USF.COMPS:NFB:1,2014-01-01T04:06:00Z,25.0840,-81.0960,6.0,8.03,65.02,9.3,'1111122,1111122,1111122' 
COMPS,ioos:station:USF.COMPS:NFB:1,2014-01-01T04:12:00Z,25.0840,-81.0960,6.0,7.72,65.75,8.91,'1111122,1111122,1111122' 
COMPS,ioos:station:USF.COMPS:NFB:1,2014-01-01T04:18:00Z,25.0840,-81.0960,6.0,7.58,63.69,9.01,'1111122,1111122,1111122' 
COMPS,ioos:station:USF.COMPS:NFB:1,2014-01-01T04:24:00Z,25.0840,-81.0960,6.0,7.28,64.54,9.01,'1111122,1111122,1111122' 
COMPS,ioos:station:USF.COMPS:NFB:1,2014-01-01T04:30:00Z,25.0840,-81.0960,6.0,7.35,66.3,8.42,'1111122,1111122,1111122' 
COMPS,ioos:station:USF.COMPS:NFB:1,2014-01-01T04:36:00Z,25.0840,-81.0960,6.0,7.27,63.85,8.42,'1111122,1111122,1111122' 
COMPS,ioos:station:USF.COMPS:NFB:1,2014-01-01T04:42:00Z,25.0840,-81.0960,6.0,7.52,67.41,8.52,'1111122,1111122,1111122' 
COMPS,ioos:station:USF.COMPS:NFB:1,2014-01-01T04:48:00Z,25.0840,-81.0960,6.0,7.21,70.67,8.13,'1111122,1111122,1111122' 
COMPS,ioos:station:USF.COMPS:NFB:1,2014-01-01T04:54:00Z,25.0840,-81.0960,6.0,7.4,72.16,8.72,'1111122,1111122,1111122' 
COMPS,ioos:station:USF.COMPS:NFB:1,2014-01-01T05:00:00Z,25.0840,-81.0960,6.0,7.31,73.56,8.52,'1111122,1111122,1111122' 
COMPS,ioos:station:USF.COMPS:NFB:1,2014-01-01T05:06:00Z,25.0840,-81.0960,6.0,7.85,75.67,8.72,'1111122,1111122,1111122' 
COMPS,ioos:station:USF.COMPS:NFB:1,2014-01-01T05:12:00Z,25.0840,-81.0960,6.0,8.35,75.2,9.8,'1111122,1111122,1111122' 
COMPS,ioos:station:USF.COMPS:NFB:1,2014-01-01T05:18:00Z,25.0840,-81.0960,6.0,8.68,75.13,9.99,'1111122,1111122,1111122' 
COMPS,ioos:station:USF.COMPS:NFB:1,2014-01-01T05:24:00Z,25.0840,-81.0960,6.0,8.0,76.39,10.48,'1111122,1111122,1111122' 
COMPS,ioos:station:USF.COMPS:NFB:1,2014-01-01T05:30:00Z,25.0840,-81.0960,6.0,8.0,75.93,8.91,'1111122,1111122,1111122' 
COMPS,ioos:station:USF.COMPS:NFB:1,2014-01-01T05:36:00Z,25.0840,-81.0960,6.0,7.66,75.5,9.4,'1111122,1111122,1111122' 
COMPS,ioos:station:USF.COMPS:NFB:1,2014-01-01T05:42:00Z,25.0840,-81.0960,6.0,7.44,74.58,8.82,'1111122,1111122,1111122' 
COMPS,ioos:station:USF.COMPS:NFB:1,2014-01-01T05:48:00Z,25.0840,-81.0960,6.0,7.53,75.85,9.4,'1111122,1111122,1111122' 
COMPS,ioos:station:USF.COMPS:NFB:1,2014-01-01T05:54:00Z,25.0840,-81.0960,6.0,8.16,77.08,10.19,'1111122,1111122,1111122' 
COMPS,ioos:station:USF.COMPS:NFB:1,2014-01-01T06:00:00Z,25.0840,-81.0960,6.0,7.7,74.66,9.4,'1111122,1111122,1111122' 
COMPS,ioos:station:USF.COMPS:NFB:1,2014-01-01T06:06:00Z,25.0840,-81.0960,6.0,7.52,76.92,9.21,'1111122,1111122,1111122' 
COMPS,ioos:station:USF.COMPS:NFB:1,2014-01-01T06:12:00Z,25.0840,-81.0960,6.0,7.87,74.95,9.5,'1111122,1111122,1111122' 
COMPS,ioos:station:USF.COMPS:NFB:1,2014-01-01T06:18:00Z,25.0840,-81.0960,6.0,8.06,78.26,9.4,'1111122,1111122,1111122' 
COMPS,ioos:station:USF.COMPS:NFB:1,2014-01-01T06:24:00Z,25.0840,-81.0960,6.0,7.83,76.36,9.7,'1111122,1111122,1111122' 
COMPS,ioos:station:USF.COMPS:NFB:1,2014-01-01T06:30:00Z,25.0840,-81.0960,6.0,8.12,77.17,9.21,'1111122,1111122,1111122' 
COMPS,ioos:station:USF.COMPS:NFB:1,2014-01-01T06:36:00Z,25.0840,-81.0960,6.0,8.17,79.16,9.5,'1111122,1111122,1111122' 
COMPS,ioos:station:USF.COMPS:NFB:1,2014-01-01T06:42:00Z,25.0840,-81.0960,6.0,7.89,80.75,9.11,'1111122,1111122,1111122' 
COMPS,ioos:station:USF.COMPS:NFB:1,2014-01-01T06:48:00Z,25.0840,-81.0960,6.0,8.01,81.58,9.3,'1111122,1111122,1111122' 
COMPS,ioos:station:USF.COMPS:NFB:1,2014-01-01T06:54:00Z,25.0840,-81.0960,6.0,8.08,82.59,9.8,'1111122,1111122,1111122' 
COMPS,ioos:station:USF.COMPS:NFB:1,2014-01-01T07:00:00Z,25.0840,-81.0960,6.0,7.64,82.77,8.91,'1111122,1111122,1111122' 
COMPS,ioos:station:USF.COMPS:NFB:1,2014-01-01T07:06:00Z,25.0840,-81.0960,6.0,7.53,83.22,8.62,'1111122,1111122,1111122' 
COMPS,ioos:station:USF.COMPS:NFB:1,2014-01-01T07:12:00Z,25.0840,-81.0960,6.0,7.42,82.89,8.42,'1111122,1111122,1111122' 
COMPS,ioos:station:USF.COMPS:NFB:1,2014-01-01T07:18:00Z,25.0840,-81.0960,6.0,7.62,82.12,9.3,'1111122,1111122,1111122' 
COMPS,ioos:station:USF.COMPS:NFB:1,2014-01-01T07:24:00Z,25.0840,-81.0960,6.0,7.36,81.34,8.91,'1111122,1111122,1111122' 
COMPS,ioos:station:USF.COMPS:NFB:1,2014-01-01T07:30:00Z,25.0840,-81.0960,6.0,7.53,82.75,8.42,'1111122,1111122,1111122' 
COMPS,ioos:station:USF.COMPS:NFB:1,2014-01-01T07:36:00Z,25.0840,-81.0960,6.0,7.46,84.07,8.33,'1111122,1111122,1111122' 
COMPS,ioos:station:USF.COMPS:NFB:1,2014-01-01T07:42:00Z,25.0840,-81.0960,6.0,7.24,83.53,8.62,'1111122,1111122,1111122' 
COMPS,ioos:station:USF.COMPS:NFB:1,2014-01-01T07:48:00Z,25.0840,-81.0960,6.0,6.97,77.06,7.93,'1111122,1111122,1111122' 
COMPS,ioos:station:USF.COMPS:NFB:1,2014-01-01T07:54:00Z,25.0840,-81.0960,6.0,7.1,71.82,7.83,'1111122,1111122,1111122' 
COMPS,ioos:station:USF.COMPS:NFB:1,2014-01-01T08:00:00Z,25.0840,-81.0960,6.0,6.81,69.54,7.64,'1111122,1111122,1111122' 
COMPS,ioos:station:USF.COMPS:NFB:1,2014-01-01T08:06:00Z,25.0840,-81.0960,6.0,6.39,70.9,7.15,'1111122,1111122,1111122' 
COMPS,ioos:station:USF.COMPS:NFB:1,2014-01-01T08:12:00Z,25.0840,-81.0960,6.0,6.27,71.42,7.05,'1111122,1111122,1111122' 
COMPS,ioos:station:USF.COMPS:NFB:1,2014-01-01T08:18:00Z,25.0840,-81.0960,6.0,6.19,71.42,6.95,'1111122,1111122,1111122' 
COMPS,ioos:station:USF.COMPS:NFB:1,2014-01-01T08:24:00Z,25.0840,-81.0960,6.0,6.04,74.72,6.85,'1111122,1111122,1111122' 
COMPS,ioos:station:USF.COMPS:NFB:1,2014-01-01T08:30:00Z,25.0840,-81.0960,6.0,6.03,75.87,6.85,'1111122,1111122,1111122' 
COMPS,ioos:station:USF.COMPS:NFB:1,2014-01-01T08:36:00Z,25.0840,-81.0960,6.0,6.16,74.35,6.95,'1111122,1111122,1111122' 
COMPS,ioos:station:USF.COMPS:NFB:1,2014-01-01T08:42:00Z,25.0840,-81.0960,6.0,5.86,73.59,6.66,'1111122,1111122,1111122' 
COMPS,ioos:station:USF.COMPS:NFB:1,2014-01-01T08:48:00Z,25.0840,-81.0960,6.0,5.61,74.62,6.17,'1111122,1111122,1111122' 
COMPS,ioos:station:USF.COMPS:NFB:1,2014-01-01T08:54:00Z,25.0840,-81.0960,6.0,5.61,75.19,6.37,'1111122,1111122,1111122' 
COMPS,ioos:station:USF.COMPS:NFB:1,2014-01-01T09:00:00Z,25.0840,-81.0960,6.0,5.41,74.39,6.17,'1111122,1111122,1111122' 
COMPS,ioos:station:USF.COMPS:NFB:1,2014-01-01T09:06:00Z,25.0840,-81.0960,6.0,5.25,72.86,6.27,'1111122,1111122,1111122' 
COMPS,ioos:station:USF.COMPS:NFB:1,2014-01-01T09:12:00Z,25.0840,-81.0960,6.0,5.04,73.87,5.78,'1111122,1111122,1111122' 
COMPS,ioos:station:USF.COMPS:NFB:1,2014-01-01T09:18:00Z,25.0840,-81.0960,6.0,5.08,71.54,5.78,'1111122,1111122,1111122' 
COMPS,ioos:station:USF.COMPS:NFB:1,2014-01-01T09:24:00Z,25.0840,-81.0960,6.0,5.13,76.34,6.37,'1111122,1111122,1111122' 
COMPS,ioos:station:USF.COMPS:NFB:1,2014-01-01T09:30:00Z,25.0840,-81.0960,6.0,5.1,79.91,5.68,'1111122,1111122,1111122' 
COMPS,ioos:station:USF.COMPS:NFB:1,2014-01-01T09:36:00Z,25.0840,-81.0960,6.0,5.26,79.07,6.07,'1111122,1111122,1111122' 
COMPS,ioos:station:USF.COMPS:NFB:1,2014-01-01T09:42:00Z,25.0840,-81.0960,6.0,5.27,74.96,5.87,'1111122,1111122,1111122' 
COMPS,ioos:station:USF.COMPS:NFB:1,2014-01-01T09:48:00Z,25.0840,-81.0960,6.0,5.58,71.74,6.27,'1111122,1111122,1111122' 
COMPS,ioos:station:USF.COMPS:NFB:1,2014-01-01T09:54:00Z,25.0840,-81.0960,6.0,5.68,73.25,6.56,'1111122,1111122,1111122' 
COMPS,ioos:station:USF.COMPS:NFB:1,2014-01-01T10:00:00Z,25.0840,-81.0960,6.0,5.95,75.72,6.66,'1111122,1111122,1111122' 
COMPS,ioos:station:USF.COMPS:NFB:1,2014-01-01T10:06:00Z,25.0840,-81.0960,6.0,5.91,80.62,6.76,'1111122,1111122,1111122' 
COMPS,ioos:station:USF.COMPS:NFB:1,2014-01-01T10:12:00Z,25.0840,-81.0960,6.0,5.8,85.22,6.37,'1111122,1111122,1111122' 
COMPS,ioos:station:USF.COMPS:NFB:1,2014-01-01T10:18:00Z,25.0840,-81.0960,6.0,6.17,84.72,7.25,'1111122,1111122,1111122' 
COMPS,ioos:station:USF.COMPS:NFB:1,2014-01-01T10:24:00Z,25.0840,-81.0960,6.0,6.34,85.37,7.64,'1111122,1111122,1111122' 
COMPS,ioos:station:USF.COMPS:NFB:1,2014-01-01T10:30:00Z,25.0840,-81.0960,6.0,6.2,83.83,6.95,'1111122,1111122,1111122' 
COMPS,ioos:station:USF.COMPS:NFB:1,2014-01-01T10:36:00Z,25.0840,-81.0960,6.0,6.33,81.84,7.05,'1111122,1111122,1111122' 
COMPS,ioos:station:USF.COMPS:NFB:1,2014-01-01T10:42:00Z,25.0840,-81.0960,6.0,6.44,79.83,7.54,'1111122,1111122,1111122' 
COMPS,ioos:station:USF.COMPS:NFB:1,2014-01-01T10:48:00Z,25.0840,-81.0960,6.0,6.5,79.38,7.25,'1111122,1111122,1111122' 
COMPS,ioos:station:USF.COMPS:NFB:1,2014-01-01T10:54:00Z,25.0840,-81.0960,6.0,5.94,80.74,6.85,'1111122,1111122,1111122' 
COMPS,ioos:station:USF.COMPS:NFB:1,2014-01-01T11:00:00Z,25.0840,-81.0960,6.0,5.85,77.67,6.76,'1111122,1111122,1111122' 
COMPS,ioos:station:USF.COMPS:NFB:1,2014-01-01T11:06:00Z,25.0840,-81.0960,6.0,5.86,77.75,6.37,'1111122,1111122,1111122' 
COMPS,ioos:station:USF.COMPS:NFB:1,2014-01-01T11:12:00Z,25.0840,-81.0960,6.0,5.95,78.96,6.76,'1111122,1111122,1111122' 
COMPS,ioos:station:USF.COMPS:NFB:1,2014-01-01T11:18:00Z,25.0840,-81.0960,6.0,5.82,79.05,6.76,'1111122,1111122,1111122' 
COMPS,ioos:station:USF.COMPS:NFB:1,2014-01-01T11:24:00Z,25.0840,-81.0960,6.0,5.68,73.66,6.66,'1111122,1111122,1111122' 
COMPS,ioos:station:USF.COMPS:NFB:1,2014-01-01T11:30:00Z,25.0840,-81.0960,6.0,5.58,72.94,6.27,'1111122,1111122,1111122' 
COMPS,ioos:station:USF.COMPS:NFB:1,2014-01-01T11:36:00Z,25.0840,-81.0960,6.0,5.66,76.11,6.37,'1111122,1111122,1111122' 
COMPS,ioos:station:USF.COMPS:NFB:1,2014-01-01T11:42:00Z,25.0840,-81.0960,6.0,5.51,77.68,6.07,'1111122,1111122,1111122' 
COMPS,ioos:station:USF.COMPS:NFB:1,2014-01-01T11:48:00Z,25.0840,-81.0960,6.0,5.37,74.08,6.07,'1111122,1111122,1111122' 
COMPS,ioos:station:USF.COMPS:NFB:1,2014-01-01T11:54:00Z,25.0840,-81.0960,6.0,5.49,69.76,6.37,'1111122,1111122,1111122' 
COMPS,ioos:station:USF.COMPS:NFB:1,2014-01-01T12:00:00Z,25.0840,-81.0960,6.0,5.64,73.36,6.07,'1111122,1111122,1111122' 
COMPS,ioos:station:USF.COMPS:NFB:1,2014-01-01T12:06:00Z,25.0840,-81.0960,6.0,5.42,73.23,6.17,'1111122,1111122,1111122' 
COMPS,ioos:station:USF.COMPS:NFB:1,2014-01-01T12:12:00Z,25.0840,-81.0960,6.0,5.27,69.65,6.07,'1111122,1111122,1111122' 
COMPS,ioos:station:USF.COMPS:NFB:1,2014-01-01T12:18:00Z,25.0840,-81.0960,6.0,5.24,71.45,6.37,'1111122,1111122,1111122' 
COMPS,ioos:station:USF.COMPS:NFB:1,2014-01-01T12:24:00Z,25.0840,-81.0960,6.0,5.29,71.25,6.56,'1111122,1111122,1111122' 
COMPS,ioos:station:USF.COMPS:NFB:1,2014-01-01T12:30:00Z,25.0840,-81.0960,6.0,5.36,67.01,6.07,'1111122,1111122,1111122' 
COMPS,ioos:station:USF.COMPS:NFB:1,2014-01-01T12:36:00Z,25.0840,-81.0960,6.0,5.4,68.59,6.07,'1111122,1111122,1111122' 
COMPS,ioos:station:USF.COMPS:NFB:1,2014-01-01T12:42:00Z,25.0840,-81.0960,6.0,5.49,72.76,6.17,'1111122,1111122,1111122' 
COMPS,ioos:station:USF.COMPS:NFB:1,2014-01-01T12:48:00Z,25.0840,-81.0960,6.0,5.58,75.95,6.17,'1111122,1111122,1111122' 
COMPS,ioos:station:USF.COMPS:NFB:1,2014-01-01T12:54:00Z,25.0840,-81.0960,6.0,5.59,80.78,6.46,'1111122,1111122,1111122' 
COMPS,ioos:station:USF.COMPS:NFB:1,2014-01-01T13:00:00Z,25.0840,-81.0960,6.0,5.65,81.95,6.46,'1111122,1111122,1111122' 
COMPS,ioos:station:USF.COMPS:NFB:1,2014-01-01T13:06:00Z,25.0840,-81.0960,6.0,5.39,82.7,6.17,'1111122,1111122,1111122' 
COMPS,ioos:station:USF.COMPS:NFB:1,2014-01-01T13:12:00Z,25.0840,-81.0960,6.0,5.79,84.86,6.46,'1111122,1111122,1111122' 
COMPS,ioos:station:USF.COMPS:NFB:1,2014-01-01T13:18:00Z,25.0840,-81.0960,6.0,5.46,82.9,5.87,'1111122,1111122,1111122' 
COMPS,ioos:station:USF.COMPS:NFB:1,2014-01-01T13:24:00Z,25.0840,-81.0960,6.0,5.3,83.21,5.87,'1111122,1111122,1111122' 
COMPS,ioos:station:USF.COMPS:NFB:1,2014-01-01T13:30:00Z,25.0840,-81.0960,6.0,5.1,84.69,5.78,'1111122,1111122,1111122' 
COMPS,ioos:station:USF.COMPS:NFB:1,2014-01-01T13:36:00Z,25.0840,-81.0960,6.0,5.18,85.86,5.78,'1111122,1111122,1111122' 
COMPS,ioos:station:USF.COMPS:NFB:1,2014-01-01T13:42:00Z,25.0840,-81.0960,6.0,5.54,87.69,6.46,'1111122,1111122,1111122' 
COMPS,ioos:station:USF.COMPS:NFB:1,2014-01-01T13:48:00Z,25.0840,-81.0960,6.0,5.7,88.1,6.46,'1111122,1111122,1111122' 
COMPS,ioos:station:USF.COMPS:NFB:1,2014-01-01T13:54:00Z,25.0840,-81.0960,6.0,5.75,88.7,6.56,'1111122,1111122,1111122' 
COMPS,ioos:station:USF.COMPS:NFB:1,2014-01-01T14:00:00Z,25.0840,-81.0960,6.0,5.69,91.03,6.56,'1111122,1111122,1111122' 
COMPS,ioos:station:USF.COMPS:NFB:1,2014-01-01T14:06:00Z,25.0840,-81.0960,6.0,5.84,89.86,6.56,'1111122,1111122,1111122' 
COMPS,ioos:station:USF.COMPS:NFB:1,2014-01-01T14:12:00Z,25.0840,-81.0960,6.0,5.74,88.68,6.46,'1111122,1111122,1111122' 
COMPS,ioos:station:USF.COMPS:NFB:1,2014-01-01T14:18:00Z,25.0840,-81.0960,6.0,5.7,88.75,6.56,'1111122,1111122,1111122' 
COMPS,ioos:station:USF.COMPS:NFB:1,2014-01-01T14:24:00Z,25.0840,-81.0960,6.0,5.22,93.86,5.68,'1111122,1111122,1111122' 
COMPS,ioos:station:USF.COMPS:NFB:1,2014-01-01T14:30:00Z,25.0840,-81.0960,6.0,4.97,98.66,5.58,'1111122,1111122,1111122' 
COMPS,ioos:station:USF.COMPS:NFB:1,2014-01-01T14:36:00Z,25.0840,-81.0960,6.0,5.17,102.64,5.78,'1111122,1111122,1111122' 
COMPS,ioos:station:USF.COMPS:NFB:1,2014-01-01T14:42:00Z,25.0840,-81.0960,6.0,5.4,103.64,5.97,'1111122,1111122,1111122' 
COMPS,ioos:station:USF.COMPS:NFB:1,2014-01-01T14:48:00Z,25.0840,-81.0960,6.0,5.48,100.42,6.17,'1111122,1111122,1111122' 
COMPS,ioos:station:USF.COMPS:NFB:1,2014-01-01T14:54:00Z,25.0840,-81.0960,6.0,5.61,99.18,6.27,'1111122,1111122,1111122' 
COMPS,ioos:station:USF.COMPS:NFB:1,2014-01-01T15:00:00Z,25.0840,-81.0960,6.0,5.5,96.63,6.27,'1111122,1111122,1111122' 
COMPS,ioos:station:USF.COMPS:NFB:1,2014-01-01T15:06:00Z,25.0840,-81.0960,6.0,5.86,97.21,6.66,'1111122,1111122,1111122' 
COMPS,ioos:station:USF.COMPS:NFB:1,2014-01-01T15:12:00Z,25.0840,-81.0960,6.0,6.01,99.35,6.76,'1111122,1111122,1111122' 
COMPS,ioos:station:USF.COMPS:NFB:1,2014-01-01T15:18:00Z,25.0840,-81.0960,6.0,5.98,98.66,6.76,'1111122,1111122,1111122' 
COMPS,ioos:station:USF.COMPS:NFB:1,2014-01-01T15:24:00Z,25.0840,-81.0960,6.0,5.86,98.53,6.76,'1111122,1111122,1111122' 
COMPS,ioos:station:USF.COMPS:NFB:1,2014-01-01T15:30:00Z,25.0840,-81.0960,6.0,5.28,96.58,5.78,'1111122,1111122,1111122' 
COMPS,ioos:station:USF.COMPS:NFB:1,2014-01-01T15:36:00Z,25.0840,-81.0960,6.0,5.37,96.23,6.17,'1111122,1111122,1111122' 
COMPS,ioos:station:USF.COMPS:NFB:1,2014-01-01T15:42:00Z,25.0840,-81.0960,6.0,5.45,93.35,6.37,'1111122,1111122,1111122' 
COMPS,ioos:station:USF.COMPS:NFB:1,2014-01-01T15:48:00Z,25.0840,-81.0960,6.0,5.07,94.39,5.68,'1111122,1111122,1111122' 
COMPS,ioos:station:USF.COMPS:NFB:1,2014-01-01T15:54:00Z,25.0840,-81.0960,6.0,4.91,96.5,5.97,'1111122,1111122,1111122' 
COMPS,ioos:station:USF.COMPS:NFB:1,2014-01-01T16:00:00Z,25.0840,-81.0960,6.0,5.05,97.66,5.87,'1111122,1111122,1111122' 
COMPS,ioos:station:USF.COMPS:NFB:1,2014-01-01T16:06:00Z,25.0840,-81.0960,6.0,5.18,98.49,5.87,'1111122,1111122,1111122' 
COMPS,ioos:station:USF.COMPS:NFB:1,2014-01-01T16:12:00Z,25.0840,-81.0960,6.0,5.41,99.34,6.37,'1111122,1111122,1111122' 
COMPS,ioos:station:USF.COMPS:NFB:1,2014-01-01T16:18:00Z,25.0840,-81.0960,6.0,5.6,102.74,6.85,'1111122,1111122,1111122' 
COMPS,ioos:station:USF.COMPS:NFB:1,2014-01-01T16:24:00Z,25.0840,-81.0960,6.0,5.86,103.66,6.85,'1111122,1111122,1111122' 
COMPS,ioos:station:USF.COMPS:NFB:1,2014-01-01T16:30:00Z,25.0840,-81.0960,6.0,5.7,103.88,6.37,'1111122,1111122,1111122' 
COMPS,ioos:station:USF.COMPS:NFB:1,2014-01-01T16:36:00Z,25.0840,-81.0960,6.0,6.07,103.89,6.85,'1111122,1111122,1111122' 
COMPS,ioos:station:USF.COMPS:NFB:1,2014-01-01T16:42:00Z,25.0840,-81.0960,6.0,5.55,106.74,6.66,'1111122,1111122,1111122' 
COMPS,ioos:station:USF.COMPS:NFB:1,2014-01-01T16:48:00Z,25.0840,-81.0960,6.0,5.44,107.99,6.95,'1111122,1111122,1111122' 
COMPS,ioos:station:USF.COMPS:NFB:1,2014-01-01T16:54:00Z,25.0840,-81.0960,6.0,5.35,108.16,6.85,'1111122,1111122,1111122' 
COMPS,ioos:station:USF.COMPS:NFB:1,2014-01-01T17:00:00Z,25.0840,-81.0960,6.0,5.99,111.25,6.85,'1111122,1111122,1111122' 
COMPS,ioos:station:USF.COMPS:NFB:1,2014-01-01T17:06:00Z,25.0840,-81.0960,6.0,5.83,111.52,6.66,'1111122,1111122,1111122' 
COMPS,ioos:station:USF.COMPS:NFB:1,2014-01-01T17:12:00Z,25.0840,-81.0960,6.0,5.71,111.47,6.46,'1111122,1111122,1111122' 
COMPS,ioos:station:USF.COMPS:NFB:1,2014-01-01T17:18:00Z,25.0840,-81.0960,6.0,5.53,111.23,6.56,'1111122,1111122,1111122' 
COMPS,ioos:station:USF.COMPS:NFB:1,2014-01-01T17:24:00Z,25.0840,-81.0960,6.0,5.83,108.7,6.76,'1111122,1111122,1111122' 
COMPS,ioos:station:USF.COMPS:NFB:1,2014-01-01T17:30:00Z,25.0840,-81.0960,6.0,6.16,109.94,7.35,'1111122,1111122,1111122' 
COMPS,ioos:station:USF.COMPS:NFB:1,2014-01-01T17:36:00Z,25.0840,-81.0960,6.0,6.07,111.12,6.85,'1111122,1111122,1111122' 
COMPS,ioos:station:USF.COMPS:NFB:1,2014-01-01T17:42:00Z,25.0840,-81.0960,6.0,5.53,111.99,6.66,'1111122,1111122,1111122' 
COMPS,ioos:station:USF.COMPS:NFB:1,2014-01-01T17:48:00Z,25.0840,-81.0960,6.0,5.25,108.83,6.27,'1111122,1111122,1111122' 
COMPS,ioos:station:USF.COMPS:NFB:1,2014-01-01T17:54:00Z,25.0840,-81.0960,6.0,5.47,109.89,6.56,'1111122,1111122,1111122' 
COMPS,ioos:station:USF.COMPS:NFB:1,2014-01-01T18:00:00Z,25.0840,-81.0960,6.0,5.6,107.47,6.66,'1111122,1111122,1111122' 
COMPS,ioos:station:USF.COMPS:NFB:1,2014-01-01T18:06:00Z,25.0840,-81.0960,6.0,5.58,108.27,6.56,'1111122,1111122,1111122' 
COMPS,ioos:station:USF.COMPS:NFB:1,2014-01-01T18:12:00Z,25.0840,-81.0960,6.0,5.58,109.75,6.27,'1111122,1111122,1111122' 
COMPS,ioos:station:USF.COMPS:NFB:1,2014-01-01T18:18:00Z,25.0840,-81.0960,6.0,5.57,111.07,6.56,'1111122,1111122,1111122' 
COMPS,ioos:station:USF.COMPS:NFB:1,2014-01-01T18:24:00Z,25.0840,-81.0960,6.0,5.16,113.76,6.37,'1111122,1111122,1111122' 
COMPS,ioos:station:USF.COMPS:NFB:1,2014-01-01T18:30:00Z,25.0840,-81.0960,6.0,4.94,114.78,5.87,'1111122,1111122,1111122' 
COMPS,ioos:station:USF.COMPS:NFB:1,2014-01-01T18:36:00Z,25.0840,-81.0960,6.0,4.48,114.57,5.58,'1111122,1111122,1111122' 
COMPS,ioos:station:USF.COMPS:NFB:1,2014-01-01T18:42:00Z,25.0840,-81.0960,6.0,5.3,121.4,6.37,'1111122,1111122,1111122' 
COMPS,ioos:station:USF.COMPS:NFB:1,2014-01-01T18:48:00Z,25.0840,-81.0960,6.0,5.0,121.57,6.66,'1111122,1111122,1111122' 
COMPS,ioos:station:USF.COMPS:NFB:1,2014-01-01T18:54:00Z,25.0840,-81.0960,6.0,4.97,120.52,6.17,'1111122,1111122,1111122' 
COMPS,ioos:station:USF.COMPS:NFB:1,2014-01-01T19:00:00Z,25.0840,-81.0960,6.0,5.03,121.38,6.17,'1111122,1111122,1111122' 
COMPS,ioos:station:USF.COMPS:NFB:1,2014-01-01T19:06:00Z,25.0840,-81.0960,6.0,5.12,120.86,6.07,'1111122,1111122,1111122' 
COMPS,ioos:station:USF.COMPS:NFB:1,2014-01-01T19:12:00Z,25.0840,-81.0960,6.0,5.33,121.04,6.17,'1111122,1111122,1111122' 
COMPS,ioos:station:USF.COMPS:NFB:1,2014-01-01T19:18:00Z,25.0840,-81.0960,6.0,5.59,123.44,6.95,'1111122,1111122,1111122' 
COMPS,ioos:station:USF.COMPS:NFB:1,2014-01-01T19:24:00Z,25.0840,-81.0960,6.0,5.51,125.71,6.66,'1111122,1111122,1111122' 
COMPS,ioos:station:USF.COMPS:NFB:1,2014-01-01T19:30:00Z,25.0840,-81.0960,6.0,5.37,125.67,6.46,'1111122,1111122,1111122' 
COMPS,ioos:station:USF.COMPS:NFB:1,2014-01-01T19:36:00Z,25.0840,-81.0960,6.0,5.81,124.88,6.46,'1111122,1111122,1111122' 
COMPS,ioos:station:USF.COMPS:NFB:1,2014-01-01T19:42:00Z,25.0840,-81.0960,6.0,5.86,126.22,7.05,'1111122,1111122,1111122' 
COMPS,ioos:station:USF.COMPS:NFB:1,2014-01-01T19:48:00Z,25.0840,-81.0960,6.0,5.17,126.94,6.56,'1111122,1111122,1111122' 